EW2670 Weather Reports


time (UTC)temp
F
wind
direction
speed
knots
gust
knots
rain 1hr
in
rain 24hr
in
rain mn
in
humidity
%
barometer
mb
20260906221017 87 90 2.6 7.8 0.00 0.00 0.00 36 1006.3
20260906220517 87 90 1.7 4.3 0.00 0.00 0.00 35 1006.4
20260906220017 87 112 2.6 7.8 0.00 0.00 0.00 34 1006.3
20260906215537 88 90 4.3 12.2 0.00 0.00 0.00 36 1006.7
20260906215018 87 90 5.2 11.3 0.00 0.00 0.00 35 1006.7
20260906214517 88 112 2.6 5.2 0.00 0.00 0.00 34 1006.7
20260906214017 88 135 0.9 1.7 0.00 0.00 0.00 34 1006.8
20260906213537 87 135 1.7 4.3 0.00 0.00 0.00 34 1006.8
20260906213017 87 202 2.6 4.3 0.00 0.00 0.00 34 1006.8
20260906212538 88 90 4.3 8.7 0.00 0.00 0.00 34 1007.1
20260906212017 87 112 4.3 7.8 0.00 0.00 0.00 35 1007.0
20260906211517 87 90 5.2 7.8 0.00 0.00 0.00 37 1007.1
20260906211017 87 112 6.1 8.7 0.00 0.00 0.00 35 1007.2
20260906210517 86 90 5.2 8.7 0.00 0.00 0.00 37 1007.4
20260906210017 86 112 4.3 7.0 0.00 0.00 0.00 37 1007.5
20260906205517 85 112 0.9 2.6 0.00 0.00 0.00 37 1007.6
20260906205017 85 157 2.6 5.2 0.00 0.00 0.00 36 1007.4
20260906204518 86 135 4.3 10.4 0.00 0.00 0.00 36 1007.6
20260906204017 87 112 3.5 7.0 0.00 0.00 0.00 36 1007.9
20260906203517 86 90 1.7 6.1 0.00 0.00 0.00 38 1007.8
20260906203017 86 45 1.7 4.3 0.00 0.00 0.00 33 1007.6
20260906202517 86 112 3.5 7.8 0.00 0.00 0.00 34 1007.6
20260906202037 86 112 5.2 9.6 0.00 0.00 0.00 33 1007.7
20260906201517 86 90 3.5 7.8 0.00 0.00 0.00 35 1007.8
20260906201017 86 0 2.6 7.8 0.00 0.00 0.00 36 1007.9
20260906200537 86 112 3.5 6.1 0.00 0.00 0.00 38 1007.9
20260906200016 86 90 1.7 6.1 0.00 0.00 0.00 38 1007.9
20260906195517 86 90 3.5 8.7 0.00 0.00 0.00 38 1008.0
20260906195016 85 90 2.6 6.1 0.00 0.00 0.00 38 1008.0
20260906194558 85 0 1.7 5.2 0.00 0.00 0.00 39 1008.0
20260906194037 85 0 1.7 5.2 0.00 0.00 0.00 39 1008.1
20260906193517 85 22 2.6 5.2 0.00 0.00 0.00 39 1008.2
20260906193017 86 315 2.6 4.3 0.00 0.00 0.00 39 1008.3
20260906192517 85 247 2.6 4.3 0.00 0.00 0.00 39 1008.3
20260906192016 86 315 2.6 5.2 0.00 0.00 0.00 38 1008.4
20260906191518 86 0 1.7 6.1 0.00 0.00 0.00 40 1008.5
20260906191017 85 22 3.5 7.0 0.00 0.00 0.00 41 1008.5
20260906190516 84 45 1.7 5.2 0.00 0.00 0.00 42 1008.5
20260906190037 83 112 2.6 4.3 0.00 0.00 0.00 42 1008.5
20260906185517 84 67 0.9 3.5 0.00 0.00 0.00 42 1008.7
20260906185017 82 315 2.6 5.2 0.00 0.00 0.00 42 1008.7
20260906184516 82 202 1.7 5.2 0.00 0.00 0.00 44 1008.9
20260906184017 82 292 1.7 5.2 0.00 0.00 0.00 46 1009.2
20260906183517 82 315 2.6 5.2 0.00 0.00 0.00 47 1009.2
20260906183017 82 270 2.6 5.2 0.00 0.00 0.00 48 1009.3
20260906182516 81 0 2.6 3.5 0.00 0.00 0.00 48 1009.4
20260906182017 82 292 1.7 4.3 0.00 0.00 0.00 48 1009.4
20260906181516 81 337 2.6 5.2 0.00 0.00 0.00 48 1009.5
20260906181017 81 270 1.7 4.3 0.00 0.00 0.00 51 1009.6
20260906180517 80 337 2.6 6.1 0.00 0.00 0.00 50 1009.5
20260906180018 80 112 1.7 4.3 0.00 0.00 0.00 50 1009.5
20260906175516 80 337 1.7 4.3 0.00 0.00 0.00 54 1009.9
20260906175037 79 22 1.7 4.3 0.00 0.00 0.00 53 1009.9
20260906174537 78 315 0.9 3.5 0.00 0.00 0.00 54 1010.0
20260906174017 78 337 1.7 3.5 0.00 0.00 0.00 54 1010.1
20260906173517 79 22 0.9 3.5 0.00 0.00 0.00 54 1010.2
20260906173016 79 22 1.7 4.3 0.00 0.00 0.00 57 1010.5
20260906172516 78 112 0.9 3.5 0.00 0.00 0.00 57 1010.4
20260906172036 76 180 1.7 6.1 0.00 0.00 0.00 59 1010.5
20260906171517 77 90 2.6 5.2 0.00 0.00 0.00 57 1010.5
20260906171016 77 22 1.7 4.3 0.00 0.00 0.00 58 1010.6
20260906170516 76 45 1.7 4.3 0.00 0.00 0.00 60 1010.7
20260906170037 74 112 2.6 6.1 0.00 0.00 0.00 62 1010.5
20260906165516 75 22 2.6 4.3 0.00 0.00 0.00 60 1010.6
20260906165016 76 22 1.7 4.3 0.00 0.00 0.00 63 1010.7
20260906164516 74 112 1.7 4.3 0.00 0.00 0.00 63 1010.4
20260906164036 73 90 1.7 4.3 0.00 0.00 0.00 61 1010.4
20260906163517 75 0 0.9 2.6 0.00 0.00 0.00 61 1010.8
20260906163017 74 0 0.9 1.7 0.00 0.00 0.00 63 1010.8
20260906162516 73 292 0.9 2.6 0.00 0.00 0.00 63 1010.5
20260906162036 73 45 0.9 2.6 0.00 0.00 0.00 63 1010.4
20260906161536 73 337 2.6 5.2 0.00 0.00 0.00 63 1010.6
20260906161017 73 0 1.7 4.3 0.00 0.00 0.00 64 1010.7
20260906160517 73 0 1.7 5.2 0.00 0.00 0.00 64 1010.8
20260906160016 73 0 1.7 4.3 0.00 0.00 0.00 65 1010.6
20260906155536 72 0 1.7 5.2 0.00 0.00 0.00 67 1010.6
20260906155016 72 22 1.7 4.3 0.00 0.00 0.00 67 1010.5
20260906154517 72 337 1.7 4.3 0.00 0.00 0.00 66 1010.7
20260906154017 72 22 1.7 2.6 0.00 0.00 0.00 66 1010.7
20260906153516 71 0 1.7 4.3 0.00 0.00 0.00 69 1010.6
20260906153016 71 22 2.6 5.2 0.00 0.00 0.00 68 1010.8
20260906152518 70 22 2.6 5.2 0.00 0.00 0.00 69 1010.8
20260906152016 70 0 2.6 4.3 0.00 0.00 0.00 69 1010.9
20260906151516 70 22 1.7 5.2 0.00 0.00 0.00 70 1010.9
20260906151016 70 22 2.6 5.2 0.00 0.00 0.00 71 1010.8
20260906150516 69 22 3.5 7.0 0.00 0.00 0.00 70 1010.7
20260906150016 69 337 0.9 1.7 0.00 0.00 0.00 73 1010.9
20260906145537 67 337 0.9 3.5 0.00 0.00 0.00 74 1010.8
20260906145016 67 22 2.6 4.3 0.00 0.00 0.00 74 1010.7
20260906144516 67 22 2.6 4.3 0.00 0.00 0.00 73 1011.0
20260906144016 68 0 2.6 5.2 0.00 0.00 0.00 72 1010.9
20260906143516 68 22 3.5 6.1 0.00 0.00 0.00 73 1010.9
20260906143016 68 22 4.3 7.0 0.00 0.00 0.00 74 1011.0
20260906142537 68 22 3.5 6.1 0.00 0.00 0.00 74 1010.8
20260906142036 68 0 2.6 4.3 0.00 0.00 0.00 75 1010.9
20260906141556 67 0 3.5 5.2 0.00 0.00 0.00 75 1010.9
20260906141016 67 337 1.7 3.5 0.00 0.00 0.00 78 1011.0
20260906140516 66 337 0.9 3.5 0.00 0.00 0.00 78 1010.9
20260906140016 65 315 1.7 3.5 0.00 0.00 0.00 79 1010.9
20260906135517 65 315 0.9 2.6 0.00 0.00 0.00 80 1010.9
20260906135016 64 337 0.9 2.6 0.00 0.00 0.00 81 1011.0
20260906134516 63 0.0 1.7 0.00 0.00 0.00 83 1010.8
20260906134016 62 0.0 0.9 0.00 0.00 0.00 85 1010.9
20260906133516 61 0.0 0.9 0.00 0.00 0.00 86 1010.7
20260906133016 61 292 1.7 2.6 0.00 0.00 0.00 85 1010.7
20260906132516 61 0.0 1.7 0.00 0.00 0.00 84 1010.7
20260906132016 61 0.0 1.7 0.00 0.00 0.00 84 1010.6
20260906131536 61 0.0 1.7 0.00 0.00 0.00 84 1010.7
20260906131036 61 270 0.9 1.7 0.00 0.00 0.00 84 1010.8
20260906130516 61 270 1.7 2.6 0.00 0.00 0.00 84 1010.8
20260906130016 60 315 0.9 1.7 0.00 0.00 0.00 84 1010.7
20260906125516 60 0.0 1.7 0.00 0.00 0.00 83 1010.6
20260906125016 60 0.0 1.7 0.00 0.00 0.00 82 1010.6
20260906124516 61 270 1.7 2.6 0.00 0.00 0.00 82 1010.6
20260906124018 61 0.0 2.6 0.00 0.00 0.00 82 1010.6
20260906123516 61 0.0 2.6 0.00 0.00 0.00 82 1010.5
20260906123016 61 292 0.9 1.7 0.00 0.00 0.00 81 1010.5
20260906122537 61 0.0 0.9 0.00 0.00 0.00 81 1010.5
20260906122016 61 0.0 1.7 0.00 0.00 0.00 81 1010.4
20260906121516 60 0.0 1.7 0.00 0.00 0.00 80 1010.3
20260906121016 60 0.0 1.7 0.00 0.00 0.00 80 1010.5
20260906120516 60 0.0 1.7 0.00 0.00 0.00 80 1010.4
20260906120016 60 0.0 0.9 0.00 0.00 0.00 80 1010.4
20260906115516 60 0.0 0.0 0.00 0.00 0.00 79 1010.4
20260906115016 60 0.0 0.9 0.00 0.00 0.00 78 1010.4
20260906114515 60 0.0 0.9 0.00 0.00 0.00 78 1010.4
20260906114036 60 0.0 1.7 0.00 0.00 0.00 78 1010.6
20260906113515 60 0.0 1.7 0.00 0.00 0.00 77 1010.6
20260906113016 61 0.0 0.0 0.00 0.00 0.00 76 1010.6
20260906112516 61 0.0 0.0 0.00 0.00 0.00 76 1010.6
20260906112036 61 0.0 1.7 0.00 0.00 0.00 75 1010.7
20260906111515 61 0.0 0.0 0.00 0.00 0.00 75 1010.6
20260906111016 61 0.0 0.9 0.00 0.00 0.00 74 1010.5
20260906110515 61 0.0 1.7 0.00 0.00 0.00 74 1010.5
20260906110037 60 315 0.9 1.7 0.00 0.00 0.00 75 1010.4
20260906105515 60 0.0 1.7 0.00 0.00 0.00 75 1010.5
20260906105036 60 0.0 0.0 0.00 0.00 0.00 74 1010.6
20260906104516 61 0.0 0.9 0.00 0.00 0.00 73 1010.6
20260906104016 61 0.0 0.0 0.00 0.00 0.00 72 1010.7
20260906103516 62 315 0.9 1.7 0.00 0.00 0.00 71 1010.8
20260906103015 62 315 0.9 1.7 0.00 0.00 0.00 70 1010.6
20260906102515 61 0.0 0.9 0.00 0.00 0.00 71 1010.6
20260906102015 61 0.0 0.0 0.00 0.00 0.00 71 1010.5
20260906101538 62 0.0 1.7 0.00 0.00 0.00 71 1010.7
20260906101019 62 0.0 1.7 0.00 0.00 0.00 71 1010.6
20260906100537 61 0.0 0.0 0.00 0.00 0.00 71 1010.6
20260906100019 61 0.0 0.0 0.00 0.00 0.00 72 1010.7
20260906095518 61 0.0 0.9 0.00 0.00 0.00 71 1010.8
20260906095017 62 0.0 1.7 0.00 0.00 0.00 71 1010.8
20260906094515 62 0.0 0.0 0.00 0.00 0.00 69 1010.9
20260906094019 62 0.0 0.0 0.00 0.00 0.00 68 1010.9
20260906093518 63 0.0 0.9 0.00 0.00 0.00 67 1010.7
20260906093018 63 0 0.9 2.6 0.00 0.00 0.00 67 1010.8
20260906092516 63 292 0.9 1.7 0.00 0.00 0.00 67 1010.7
20260906092018 63 315 0.9 3.5 0.00 0.00 0.00 67 1010.7
20260906091517 63 0.0 1.7 0.00 0.00 0.00 66 1010.3
20260906091019 63 292 0.9 2.6 0.00 0.00 0.00 65 1010.1
20260906090518 63 0.0 1.7 0.00 0.00 0.00 65 1010.2
20260906090018 63 337 0.9 0.9 0.00 0.00 0.00 65 1010.1
20260906085517 64 0.0 1.7 0.00 0.00 0.00 64 1010.0
20260906085018 64 0.0 0.9 0.00 0.00 0.00 62 1010.1
20260906084517 65 0.0 0.9 0.00 0.00 0.00 61 1010.0
20260906084017 65 292 0.9 1.7 0.00 0.00 0.00 60 1010.3
20260906083518 66 315 0.9 1.7 0.00 0.00 0.00 60 1010.3
20260906083018 66 0.0 1.7 0.00 0.00 0.00 60 1010.3
20260906082517 66 0.0 1.7 0.00 0.00 0.00 60 1010.3
20260906082017 66 0.0 1.7 0.00 0.00 0.00 60 1010.3
20260906081517 66 0.0 1.7 0.00 0.00 0.00 59 1010.5
20260906080518 66 337 0.9 2.6 0.00 0.00 0.00 60 1010.3
20260906080018 66 315 0.9 3.5 0.00 0.00 0.00 59 1010.3
20260906075517 67 0 0.9 2.6 0.00 0.00 0.00 59 1010.3
20260906075017 67 0 0.9 2.6 0.00 0.00 0.00 58 1010.3
20260906074517 67 0.0 1.7 0.00 0.00 0.00 57 1010.2
20260906074017 67 0 0.9 1.7 0.00 0.00 0.00 56 1010.3
20260906073517 67 0 0.9 2.6 0.00 0.00 0.00 56 1010.2
20260906073018 67 0.0 1.7 0.00 0.00 0.00 55 1010.2
20260906072518 67 270 0.9 1.7 0.00 0.00 0.00 54 1010.2
20260906072017 67 0.0 1.7 0.00 0.00 0.00 54 1010.3
20260906071517 67 0.0 1.7 0.00 0.00 0.00 54 1010.3
20260906071017 67 270 0.9 1.7 0.00 0.00 0.00 55 1010.3
20260906070557 68 0.0 1.7 0.00 0.00 0.00 53 1010.4
20260906070017 67 270 1.7 3.5 0.00 0.00 0.00 54 1010.2
20260906065537 67 0 1.7 3.5 0.00 0.00 0.00 54 1010.1
20260906065017 68 0.0 1.7 0.00 0.00 0.00 52 1010.2
20260906064517 68 0 1.7 3.5 0.00 0.00 0.00 50 1010.1
20260906064017 69 292 0.9 1.7 0.00 0.00 0.00 50 1010.2
20260906063538 69 292 0.9 1.7 0.00 0.00 0.00 49 1010.2
20260906063027 69 315 0.9 2.6 0.00 0.00 0.00 49 1010.2
20260906062638 69 292 1.7 3.5 0.00 0.00 0.00 49 1010.0
20260906062019 70 315 0.9 2.6 0.00 0.00 0.00 48 1010.2
20260906061537 70 337 0.9 2.6 0.00 0.00 0.00 47 1010.3
20260906061017 70 292 2.6 3.5 0.00 0.00 0.00 49 1010.3
20260906060518 70 270 3.5 5.2 0.00 0.00 0.00 48 1010.3
20260906060021 69 270 3.5 5.2 0.00 0.00 0.00 50 1010.5
20260906055517 69 225 1.7 4.3 0.00 0.00 0.00 50 1010.6
20260906055017 69 247 4.3 5.2 0.00 0.00 0.00 49 1010.4
20260906054516 70 202 1.7 4.3 0.00 0.00 0.00 48 1010.4
20260906054016 70 90 1.7 2.6 0.00 0.00 0.00 49 1010.3
20260906053516 70 90 1.7 2.6 0.00 0.00 0.00 48 1010.1
20260906053016 70 90 0.9 2.6 0.00 0.00 0.00 48 1010.1
20260906052537 70 0.0 1.7 0.00 0.00 0.00 48 1010.0
20260906052016 72 90 0.9 2.6 0.00 0.00 0.00 45 1010.0
20260906051516 72 0.0 1.7 0.00 0.00 0.00 45 1010.2
20260906051016 72 90 0.9 2.6 0.00 0.00 0.00 45 1010.0
20260906050516 73 0.0 1.7 0.00 0.00 0.00 44 1009.9
20260906050016 72 67 1.7 4.3 0.00 0.00 0.00 45 1009.8
20260906045536 72 67 2.6 5.2 0.00 0.00 0.00 46 1010.0
20260906045016 71 67 0.9 4.3 0.00 0.00 0.00 47 1009.8
20260906044516 70 225 1.7 3.5 0.00 0.00 0.00 47 1009.6
20260906044036 69 225 3.5 5.2 0.00 0.00 0.00 49 1009.3
20260906043516 69 247 5.2 5.2 0.00 0.00 0.00 48 1009.3
20260906043016 71 247 1.7 4.3 0.00 0.00 0.00 45 1009.2
20260906042516 72 0.0 1.7 0.00 0.00 0.00 45 1009.1
20260906042016 71 0.0 1.7 0.00 0.00 0.00 45 1009.0
20260906041516 72 0.0 1.7 0.00 0.00 0.00 45 1008.8
20260906041016 73 315 0.9 2.6 0.00 0.00 0.00 43 1008.7
20260906040517 73 270 1.7 2.6 0.00 0.00 0.00 42 1008.8
20260906040016 73 337 1.7 3.5 0.00 0.00 0.00 42 1008.4
20260906035516 73 0.0 1.7 0.00 0.00 0.00 42 1008.2
20260906035036 73 315 0.9 2.6 0.00 0.00 0.00 43 1008.1
20260906034516 73 0 1.7 3.5 0.00 0.00 0.00 43 1008.5
20260906034136 73 22 0.9 1.7 0.00 0.00 0.00 42 1008.5
20260906033516 74 292 0.9 2.6 0.00 0.00 0.00 41 1008.5
20260906033036 74 292 0.9 2.6 0.00 0.00 0.00 41 1008.5
20260906032516 75 292 1.7 2.6 0.00 0.00 0.00 40 1008.5
20260906032016 74 0 0.9 1.7 0.00 0.00 0.00 41 1008.3
20260906031515 75 0 1.7 2.6 0.00 0.00 0.00 42 1008.3
20260906031015 75 0 1.7 5.2 0.00 0.00 0.00 43 1008.3
20260906030516 75 0 1.7 4.3 0.00 0.00 0.00 42 1008.1
20260906030016 75 0 1.7 5.2 0.00 0.00 0.00 41 1008.0
20260906025516 75 337 1.7 4.3 0.00 0.00 0.00 42 1008.0
20260906025016 75 0 1.7 3.5 0.00 0.00 0.00 41 1008.0
20260906024516 76 0.0 1.7 0.00 0.00 0.00 39 1007.8
20260906024016 76 22 2.6 5.2 0.00 0.00 0.00 37 1007.7
20260906023515 75 0.0 2.6 0.00 0.00 0.00 39 1007.7
20260906023016 76 0.0 0.0 0.00 0.00 0.00 38 1007.7
20260906022516 77 0.0 0.0 0.00 0.00 0.00 37 1007.9
20260906022016 78 0.0 0.0 0.00 0.00 0.00 35 1007.7
20260906021516 79 0.0 1.7 0.00 0.00 0.00 34 1007.6
20260906021016 79 0 0.9 1.7 0.00 0.00 0.00 34 1007.3
20260906020516 79 0 2.6 4.3 0.00 0.00 0.00 34 1007.3
20260906020016 79 22 3.5 6.1 0.00 0.00 0.00 34 1007.3
20260906015516 81 337 1.7 6.1 0.00 0.00 0.00 31 1007.3
20260906015016 81 292 3.5 5.2 0.00 0.00 0.00 31 1007.3
20260906014515 81 292 4.3 7.0 0.00 0.00 0.00 31 1006.9
20260906014037 81 292 3.5 7.8 0.00 0.00 0.00 31 1006.8
20260906013518 81 292 3.5 7.8 0.00 0.00 0.00 31 1006.6
20260906013018 80 315 1.7 6.1 0.00 0.00 0.00 32 1006.5
20260906012515 80 315 0.9 3.5 0.00 0.00 0.00 31 1006.6
20260906012017 81 315 0.9 3.5 0.00 0.00 0.00 31 1006.6
20260906011537 83 337 2.6 5.2 0.00 0.00 0.00 30 1006.7
20260906011018 83 292 5.2 7.8 0.00 0.00 0.00 29 1006.5
20260906010536 84 292 5.2 7.8 0.00 0.00 0.00 29 1006.5
20260906010018 84 270 5.2 8.7 0.00 0.00 0.00 29 1006.6
20260906005517 84 270 6.1 10.4 0.00 0.00 0.00 28 1006.7
20260906005018 85 270 6.1 11.3 0.00 0.00 0.00 28 1006.7
20260906004537 85 270 6.1 10.4 0.00 0.00 0.00 28 1008.5
20260906004038 85 270 6.1 11.3 0.00 0.00 0.00 27 1006.9
20260906003517 86 292 6.1 11.3 0.00 0.00 0.00 27 1006.8
20260906003015 86 270 6.1 8.7 0.00 0.00 0.00 27 1006.9
20260906002517 86 270 6.1 8.7 0.00 0.00 0.00 27 1006.8
20260906002017 86 270 5.2 8.7 0.00 0.00 0.00 26 1006.8
20260906001517 86 270 3.5 6.1 0.00 0.00 0.00 26 1006.8
20260906001017 86 270 4.3 6.1 0.00 0.00 0.00 26 1006.8
20260906000518 86 270 3.5 7.8 0.00 0.00 0.00 26 1007.0
20260906000018 86 270 4.3 6.1 0.00 0.00 0.00 26 1007.1
20260905235518 87 270 4.3 7.8 0.00 0.00 0.00 26 1007.0
20260905235017 87 270 4.3 7.0 0.00 0.00 0.00 25 1006.9
20260905234518 87 270 3.5 5.2 0.00 0.00 0.00 26 1006.9
20260905234017 87 270 4.3 7.8 0.00 0.00 0.00 25 1006.8
20260905233517 88 270 2.6 5.2 0.00 0.00 0.00 26 1006.9
20260905233037 89 0.0 0.0 0.00 0.00 0.00 24 1006.9
20260905232517 90 270 1.7 3.5 0.00 0.00 0.00 22 1006.8
20260905232037 90 22 1.7 3.5 0.00 0.00 0.00 23 1006.7
20260905231518 90 0 2.6 4.3 0.00 0.00 0.00 23 1006.7
20260905231018 92 22 2.6 8.7 0.00 0.00 0.00 24 1006.7
20260905230517 91 112 1.7 3.5 0.00 0.00 0.00 24 1006.7
20260905230017 89 112 0.9 2.6 0.00 0.00 0.00 23 1006.6
20260905225537 89 270 1.7 3.5 0.00 0.00 0.00 24 1006.4
20260905225038 90 270 2.6 4.3 0.00 0.00 0.00 23 1006.4
20260905224518 91 270 2.6 4.3 0.00 0.00 0.00 23 1006.5
20260905224017 91 270 2.6 5.2 0.00 0.00 0.00 24 1006.7
20260905223517 91 270 2.6 6.1 0.00 0.00 0.00 21 1006.7
20260905223017 92 247 1.7 5.2 0.00 0.00 0.00 23 1006.8
20260905222517 90 315 0.9 1.7 0.00 0.00 0.00 26 1006.8
20260905222018 89 315 0.9 2.6 0.00 0.00 0.00 25 1006.7
20260905221517 90 0 1.7 3.5 0.00 0.00 0.00 25 1006.7